Home > Weather > Klagenfurt > Past weeks

Flag for Austria Past Weather in Klagenfurt, Carinthia, Austria — Yesterday and Last 2 Weeks

Now
52 °F

Passing clouds.


Feels Like: 51 °F
Forecast: 44 / 74 °F
Wind: 3 mph from Northwest

Location: Klagenfurt-Flughafen

Current Time: May 25, 2016 at 1:39:27 AM

Latest Report: May 25, 2016 at 12:50 AM


Visibility: N/A

Pressure: 29.89 "Hg

Humidity: 94%

Dew Point: 50 °F

Location of KlagenfurtLocation

Past Weather in Klagenfurt — Graph

°F

Klagenfurt Temperature Yesterday

Maximum temperature yesterday: 61 °F (at 1:50 PM)
Minimum temperature yesterday: 50 °F (at 3:50 AM)
Average temperature yesterday: 55 °F

High & Low Weather Summary for the Past Weeks

 TemperatureHumidityPressure
High81 °F (May 22, 3:50 PM)100% (May 11, 4:50 AM)30.18 "Hg (May 11, 4:50 AM)
Low39 °F (May 16, 5:20 AM)26% (May 21, 5:50 PM)29.42 "Hg (May 13, 3:20 AM)
Average57 °F70%29.87 "Hg
* Reported May 10 12:20 AM — May 25 12:20 AM, Klagenfurt, Weather by CustomWeather, © 2016

Note: Actual official high and low records may vary slightly from our data, if they occured in-between our weather recording intervals... More about our weather records

Advertising

Klagenfurt Weather History for the Previous 24 Hours

Scroll right to see more
 ConditionsComfort  
Time TempWeatherWind HumidityBarometerVisibility
12:20 AM
Wed, May 25
52 °FCool.5 mph94%29.89 "HgN/A
11:50 PM
Tue, May 24
52 °FCool.3 mph94%29.89 "HgN/A
11:20 PM54 °FPassing clouds.1 mph88%29.89 "HgN/A
10:50 PM54 °FPassing clouds.2 mph88%29.89 "HgN/A
10:20 PM55 °FPassing clouds.1 mph82%29.86 "HgN/A
9:50 PM57 °FPassing clouds.2 mph82%29.86 "HgN/A
9:20 PM57 °FPartly sunny.3 mph77%29.86 "HgN/A
8:50 PM59 °FPartly sunny.3 mph72%29.86 "HgN/A
8:20 PM59 °FPartly sunny.3 mph68%29.83 "HgN/A
7:50 PM59 °FPartly sunny.2 mph68%29.83 "HgN/A
7:20 PM61 °FPartly sunny.2 mph59%29.83 "HgN/A
6:50 PM61 °FPartly sunny.2 mph63%29.83 "HgN/A
6:20 PM61 °FOvercast.3 mph59%29.80 "HgN/A
5:50 PM61 °FPartly sunny.3 mph63%29.80 "HgN/A
5:20 PM61 °FPartly sunny.3 mph59%29.80 "HgN/A
4:50 PM61 °FPartly sunny.3 mph63%29.80 "HgN/A
4:20 PM61 °FPartly sunny.5 mph59%29.80 "HgN/A
3:50 PM61 °FPartly sunny.5 mph59%29.80 "HgN/A
3:20 PM61 °FBroken clouds.6 mph59%29.80 "HgN/A
2:50 PM61 °FBroken clouds.6 mph59%29.80 "HgN/A
2:20 PM59 °FBroken clouds.5 mph63%29.80 "HgN/A
1:50 PM61 °FBroken clouds.6 mph63%29.80 "HgN/A
1:20 PM59 °FBroken clouds.6 mph68%29.80 "HgN/A
12:50 PM59 °FBroken clouds.5 mph68%29.80 "HgN/A
12:20 PM55 °FBroken clouds.3 mph67%29.80 "HgN/A
11:50 AM55 °FBroken clouds.2 mph77%29.80 "HgN/A
11:20 AM54 °FBroken clouds.3 mph82%29.80 "HgN/A
10:50 AM52 °FBroken clouds.3 mph82%29.80 "HgN/A
10:20 AM52 °FBroken clouds.6 mph88%29.80 "HgN/A
9:50 AM52 °FLight rain. Broken clouds.6 mph82%29.80 "HgN/A
9:20 AM50 °FLight rain. Broken clouds.5 mph94%29.80 "HgN/A
8:50 AM50 °FLight rain. Broken clouds.2 mph94%29.80 "HgN/A
8:20 AM50 °FLight rain. Broken clouds.3 mph94%29.80 "Hg5 mi
7:50 AM50 °FLight rain. Broken clouds.3 mph94%29.80 "Hg5 mi
7:20 AM50 °FRain. Broken clouds.3 mph88%29.77 "Hg6 mi
6:50 AM50 °FLight rain. Broken clouds.3 mph94%29.77 "Hg6 mi
6:20 AM50 °FRain. Broken clouds.7 mph94%29.77 "Hg6 mi
5:50 AM50 °FRain. Partly cloudy.3 mph94%29.77 "Hg4 mi
5:20 AM50 °FRain. Passing clouds.3 mph94%29.74 "Hg6 mi
4:50 AM50 °FRain. Passing clouds.6 mph94%29.74 "HgN/A
4:20 AM50 °FRain. Passing clouds.2 mph100%29.74 "Hg6 mi
3:50 AM50 °FHeavy rain. Passing clouds.2 mph100%29.74 "Hg3 mi
3:20 AM52 °FRain. Passing clouds.1 mph88%29.74 "Hg5 mi
2:50 AM52 °FRain. Passing clouds.2 mph94%29.74 "Hg4 mi
2:20 AM52 °FRain. Passing clouds.2 mph94%29.77 "Hg6 mi
1:50 AM52 °FRain. Partly cloudy.3 mph94%29.77 "Hg4 mi
1:20 AM52 °FRain. Passing clouds.1 mph94%29.74 "HgN/A
Weather by CustomWeather, © 2016

See weather overviewHow to use our weather pages